RH
71 71 72 69 64 60 56 52 47 40 32 26 22 21 20 17 16 14 13 13 13 14 15 14 14 15 14 14 14 14 14 15 15 15 15 14 14 13 13 13 13 13 13 14 16 17 18 19 20 22 24 26 29 31 34 37 40 42 44 46 49 52 57 64 70 76 80 85 91 96 98 98 99 97 92 88 82 74 69 65 61 57 53 50 50 50
63 62 62 59 56 53 47 42 38 35 33 31 28 25 21 18 15 13 14 14 14 15 15 15 15 14 14 14 14 15 15 15 14 14 14 13 13 13 14 14 15 16 17 18 20 21 22 23 25 28 32 35 38 42 45 48 49 50 52 54 59 64 70 76 80 85 88 90 91 92 93 93 93 91 85 80 76 71 66 62 59 58 60 62 63 64
50 50 50 48 47 45 42 39 36 33 31 27 23 19 17 15 14 14 15 15 15 15 14 14 14 14 14 14 14 14 13 13 13 13 13 14 15 16 17 18 19 20 21 22 23 24 25 27 30 35 40 45 49 52 53 54 56 58 61 64 70 75 80 84 85 87 88 87 86 85 84 84 85 86 82 75 71 69 67 66 66 66 66 65 62 60
42 41 38 35 33 30 27 25 22 21 19 18 17 17 17 17 16 16 16 16 15 15 14 14 14 14 13 13 13 13 13 13 13 13 14 15 17 17 19 20 21 22 22 23 24 25 27 31 36 41 46 52 56 58 58 60 63 65 69 74 79 82 83 83 83 83 83 85 87 89 88 84 80 79 80 79 77 75 73 70 67 64 60 56 54 52
37 34 32 28 25 23 22 21 21 21 21 21 20 19 19 18 17 16 15 15 14 14 14 14 14 13 13 13 13 13 13 13 13 14 16 16 18 19 20 22 23 23 24 25 26 28 31 36 42 47 52 57 60 62 64 66 68 71 74 76 78 79 80 81 82 84 86 89 92 92 92 89 87 87 89 89 87 83 76 69 64 61 59 57 54 53
39 38 38 36 34 33 31 29 26 26 24 22 18 17 17 15 15 15 14 14 14 14 14 14 14 14 13 13 13 13 14 15 16 17 19 20 21 23 25 26 27 28 29 30 32 34 38 44 49 54 58 62 64 66 67 69 71 73 75 76 77 78 79 81 83 85 86 87 88 89 92 96 96 94 91 86 82 77 72 67 64 64 63 61 60 59
52 49 46 42 37 33 29 25 21 20 18 16 15 15 14 14 14 14 14 14 14 14 14 14 17 18 16 15 15 16 18 19 21 22 24 26 28 29 31 32 34 35 37 39 41 43 48 52 56 61 64 66 68 69 70 73 75 76 77 78 77 77 77 78 80 83 87 90 92 94 94 91 85 79 75 71 67 62 60 61 62 65 68 69 70 69
47 40 34 29 24 21 19 17 16 16 15 15 15 15 14 15 15 16 17 17 17 17 16 18 23 24 19 17 17 19 20 22 25 28 30 31 33 34 35 37 39 41 44 47 50 53 58 62 66 69 70 70 72 75 77 77 77 77 76 77 79 81 84 86 88 92 95 95 93 89 83 76 71 66 63 62 62 61 60 61 65 71 78 79 76 70
32 27 23 20 18 17 16 16 15 15 15 15 15 16 16 17 17 18 18 18 19 18 15 19 26 27 21 18 19 19 21 24 26 29 30 32 34 35 37 40 43 47 52 56 61 66 70 73 73 72 72 74 77 78 79 79 80 83 85 90 93 94 95 95 96 95 91 86 79 74 71 67 65 63 62 62 63 65 67 72 79 83 83 77 67 57
26 22 19 17 16 16 16 16 16 16 16 16 17 17 17 17 17 18 18 18 20 18 16 20 26 28 26 23 23 25 27 28 30 32 34 37 39 41 44 48 51 56 60 63 68 72 75 75 75 76 78 80 82 84 86 89 94 97 99 99 99 99 100 98 93 86 80 76 72 69 66 65 66 66 68 70 74 77 82 86 87 82 73 61 47 33
18 17 16 16 16 17 17 17 17 17 17 17 17 18 19 19 20 20 20 21 22 20 20 24 27 29 29 25 26 30 31 33 37 40 44 47 50 53 56 60 63 66 69 72 76 79 81 83 85 88 91 93 95 96 98 100 100 100 99 99 100 102 99 91 83 77 74 72 70 68 69 71 73 76 80 85 89 90 88 83 77 69 56 40 24 14
16 17 17 18 18 18 18 19 19 19 19 20 20 21 22 21 22 21 20 21 22 21 22 24 26 29 28 24 25 30 33 38 44 48 54 59 63 68 71 73 77 82 86 89 92 93 95 97 98 99 100 101 101 101 100 99 99 99 100 102 103 98 89 82 80 80 80 80 81 82 84 86 89 92 93 92 88 83 77 71 63 51 35 19 10 6
18 18 19 19 19 20 20 20 21 21 22 22 22 24 25 24 24 22 21 23 24 24 26 26 28 29 28 27 30 34 39 46 53 59 66 71 77 82 87 91 94 98 100 100 101 101 101 101 101 101 101 100 100 100 101 101 100 100 102 103 99 91 87 89 92 92 93 94 95 96 97 99 98 94 87 80 76 73 67 56 41 26 14 7 6 6
16 18 20 21 21 22 22 22 22 23 25 26 26 29 30 30 30 26 24 26 27 28 29 30 33 33 31 35 40 43 48 55 63 71 78 84 91 97 99 101 102 101 102 101 101 101 100 100 100 100 100 101 100 100 100 101 101 100 101 100 96 94 97 99 99 98 99 99 101 101 99 94 86 79 76 75 71 60 45 29 16 9 6 6 6 7
15 19 22 24 26 27 27 27 27 28 29 29 30 32 32 35 38 33 30 30 30 31 31 34 38 37 37 41 46 52 58 64 73 81 90 97 101 102 102 101 101 100 100 100 100 100 100 100 100 100 100 100 100 100 101 101 101 100 100 99 98 100 100 100 99 100 101 101 98 92 84 78 76 77 74 64 48 31 17 9 6 6 7 7 7 7
16 20 25 28 30 32 32 32 31 31 31 31 32 34 35 38 40 39 37 37 37 36 33 35 41 41 44 46 48 58 68 76 85 93 99 102 101 100 100 100 100 100 100 100 100 100 100 100 100 100 100 100 100 100 100 101 101 100 100 100 100 100 100 100 101 99 95 89 83 78 77 80 79 69 51 32 18 10 7 7 7 8 8 8 7 7
16 20 27 32 34 35 34 33 31 31 33 33 33 36 39 40 42 45 43 40 44 43 37 38 42 43 49 51 52 65 78 86 94 99 101 102 100 100 100 100 100 100 100 100 100 100 100 100 101 100 100 100 100 100 101 101 100 100 100 100 100 100 100 97 91 85 80 78 80 83 84 76 58 36 19 10 8 7 8 9 9 9 8 7 7 7
19 19 26 32 33 34 32 31 31 33 35 36 37 39 41 42 44 49 49 45 48 49 43 43 46 48 53 57 60 70 80 87 95 100 101 102 101 100 100 100 100 100 100 101 100 100 100 100 100 100 100 100 100 100 100 99 100 100 101 100 97 93 88 82 79 79 82 87 89 83 67 45 25 13 9 8 8 9 10 10 9 8 8 7 7 8
22 18 22 29 31 32 32 30 32 35 36 39 41 42 45 47 48 52 55 55 56 56 52 50 51 54 59 65 70 76 83 91 98 100 101 101 101 100 100 100 100 100 100 100 100 100 100 101 100 100 100 100 99 100 100 101 101 99 95 89 84 80 78 81 85 88 89 85 74 55 34 18 11 9 9 9 10 11 11 9 9 8 8 9 10 12
25 21 22 27 31 32 33 32 33 35 37 40 44 46 48 52 54 56 59 64 70 70 65 60 56 58 65 72 78 85 92 98 101 101 100 100 100 100 100 100 100 100 100 100 100 100 100 100 100 100 100 100 101 100 98 95 90 85 81 79 79 83 88 92 90 84 76 61 41 24 14 10 10 11 12 13 12 11 10 10 10 10 11 13 15 19
25 23 21 25 30 33 34 33 34 35 37 39 42 46 50 54 58 61 62 71 83 84 81 79 72 66 71 81 89 96 100 101 101 100 100 100 100 100 100 100 100 100 100 100 100 100 100 100 100 100 100 98 95 91 86 82 79 79 81 84 88 90 89 82 75 66 51 32 17 12 12 13 13 14 15 14 12 11 11 11 12 14 16 19 21 22
24 23 22 22 27 33 36 35 36 37 37 39 44 48 53 60 70 74 71 75 87 91 93 98 93 81 81 93 100 101 101 100 100 100 100 100 100 100 100 100 100 100 100 100 100 101 101 100 98 95 91 88 84 80 79 80 82 85 88 89 87 80 72 64 56 44 27 15 12 14 15 16 17 17 16 13 12 12 13 15 17 19 21 22 23 22
24 23 22 24 30 36 36 35 33 32 33 40 50 58 66 75 86 91 88 87 91 93 97 104 103 96 95 101 102 100 100 100 100 100 100 100 100 100 101 100 100 100 100 101 101 100 97 94 90 86 82 80 80 81 84 86 87 85 82 77 70 64 60 52 39 24 15 14 17 18 19 19 19 17 15 13 13 14 17 19 21 23 24 24 23 23
27 28 25 28 33 33 29 27 25 27 35 43 52 63 76 87 96 99 99 99 97 95 99 103 104 102 101 101 100 100 100 100 100 100 100 100 100 100 101 101 101 101 100 99 97 93 89 86 84 84 85 86 87 86 83 77 70 64 58 54 54 55 51 38 23 15 16 19 20 21 22 21 19 16 14 14 17 19 22 24 26 27 25 24 25 28
34 35 30 27 26 23 20 18 16 19 28 37 49 64 77 86 94 96 98 101 102 100 102 102 101 101 100 100 100 100 100 100 100 100 100 100 101 101 102 102 100 99 96 94 91 88 88 90 92 93 90 84 75 65 56 48 42 41 42 47 51 49 38 24 17 18 20 22 23 24 23 20 17 16 17 19 21 24 27 28 28 27 26 29 33 37
33 28 24 21 20 17 14 13 13 12 12 18 31 44 55 67 80 86 91 101 105 103 102 101 100 100 100 100 100 99 100 100 100 100 101 101 102 102 102 100 98 97 95 93 93 94 96 95 90 80 67 55 45 38 34 33 35 40 47 51 47 37 25 19 19 22 24 25 25 24 21 20 19 20 22 24 27 29 30 29 27 28 33 38 41 41
23 18 15 14 13 12 8 7 11 9 5 7 11 16 24 34 45 61 82 99 103 101 100 100 100 100 99 100 101 100 100 101 101 102 102 103 103 103 103 102 100 99 98 99 99 96 89 77 62 50 42 36 33 32 32 35 41 47 50 46 36 27 22 22 23 26 27 27 25 23 22 22 22 24 26 29 30 30 29 29 32 38 43 44 42 39
14 10 8 6 5 6 4 4 5 4 4 4 4 6 9 12 26 53 81 99 103 101 100 101 100 100 101 101 100 100 101 101 103 103 103 105 106 104 103 102 101 101 100 96 88 76 62 51 43 39 36 34 34 35 38 43 48 48 44 36 28 23 23 25 27 29 29 28 27 25 25 25 27 29 30 30 30 30 33 39 45 47 46 43 40 37
7 5 4 3 3 3 3 4 4 4 5 4 3 5 6 11 27 48 66 87 102 103 100 100 100 100 100 100 101 102 103 103 103 103 102 102 102 101 102 103 102 96 87 74 62 53 46 44 42 40 38 37 37 40 43 46 46 41 35 29 26 26 28 31 32 32 30 29 28 27 28 29 31 31 31 32 36 42 48 51 50 47 44 40 37 34
3 3 3 3 3 3 3 4 4 4 5 5 5 6 7 10 17 26 47 81 104 103 100 101 101 101 102 102 102 102 102 102 101 101 100 100 101 102 100 95 85 73 62 56 53 52 52 51 49 46 43 41 40 41 41 40 38 34 31 29 29 31 33 34 33 32 32 32 31 31 32 32 33 36 42 47 52 55 55 52 48 44 40 37 33 29
3 3 3 3 3 4 4 4 5 5 6 6 6 7 7 7 9 19 47 84 102 100 101 102 100 101 102 100 101 102 101 100 100 99 100 99 96 90 81 71 63 58 59 62 65 66 66 63 58 53 49 46 43 41 39 36 34 32 30 30 30 32 33 34 35 35 34 33 33 34 36 41 49 56 60 62 60 57 53 48 44 39 35 31 29 27
3 3 3 4 3 4 5 5 5 5 6 7 7 8 8 8 9 13 34 71 96 99 100 101 100 100 100 98 97 96 96 96 93 90 88 83 78 74 71 70 70 72 74 76 78 81 81 75 67 60 54 49 45 42 40 38 36 35 34 33 34 35 35 35 35 34 36 39 45 51 58 64 68 68 66 62 57 52 47 42 38 34 32 30 29 28
4 3 4 4 4 5 5 6 6 6 7 7 8 9 9 9 11 9 18 52 89 102 99 98 96 93 91 90 88 86 85 84 82 80 79 78 79 83 87 89 89 88 87 87 90 93 93 89 82 74 65 56 49 44 42 41 40 39 39 38 37 37 38 40 45 52 59 66 72 74 75 73 70 66 61 55 49 44 40 37 35 34 32 30 28 26
4 4 4 5 5 6 6 6 7 6 7 8 9 10 11 11 12 11 12 32 66 84 85 84 85 85 86 88 87 84 82 81 83 87 90 91 93 95 96 96 96 96 97 98 99 101 102 101 96 88 78 69 60 53 49 48 48 48 49 50 53 58 64 71 77 81 83 83 81 78 74 69 63 57 51 46 43 40 39 38 36 34 31 28 26 22
4 5 5 6 6 6 7 7 8 8 9 10 10 11 13 13 14 13 12 23 44 59 63 70 78 84 88 88 88 87 86 85 88 93 93 92 93 95 95 96 98 98 99 100 101 103 105 104 98 92 85 79 74 70 67 68 70 74 78 83 87 90 92 91 89 87 84 81 77 71 65 59 53 49 46 44 43 41 39 37 34 31 28 25 21 16
5 5 6 6 7 7 8 8 9 9 10 10 12 13 14 15 16 14 12 19 29 34 40 53 66 76 82 84 86 88 86 83 84 87 88 89 91 94 96 97 97 98 98 98 100 102 103 101 98 94 90 88 87 86 88 92 95 98 100 100 97 94 92 89 87 84 79 73 67 61 55 51 49 47 46 44 42 40 37 34 31 28 24 20 15 13
5 6 6 7 7 8 9 10 10 10 11 11 13 15 15 16 19 18 15 18 21 20 23 34 49 63 73 78 81 83 79 77 80 84 85 87 89 90 92 94 95 97 98 99 101 103 102 101 100 97 94 94 95 97 100 102 102 100 98 96 94 93 91 88 82 75 69 63 59 56 53 51 49 47 45 43 40 38 35 31 28 23 18 15 14 14
5 6 7 7 8 9 9 10 10 10 11 12 13 16 17 18 21 21 19 20 21 19 18 22 32 44 55 61 66 70 70 71 76 80 80 81 82 81 83 87 90 92 94 96 98 101 103 103 102 100 98 98 98 99 99 98 97 97 97 96 94 90 84 77 71 66 63 60 58 56 54 52 49 46 44 41 38 35 32 28 23 18 15 14 16 17
6 7 8 8 9 10 11 12 12 13 13 13 14 17 18 19 21 23 22 22 25 25 22 20 23 30 38 46 53 59 62 63 67 73 75 76 77 78 80 84 88 90 93 96 98 100 101 101 101 100 98 97 97 96 95 96 98 98 96 92 86 80 75 71 67 64 61 59 58 57 54 51 48 45 42 40 38 34 29 24 18 16 16 17 18 20
7 7 8 9 10 11 12 13 14 14 15 14 16 18 18 19 23 25 25 26 28 31 30 26 24 24 28 36 46 57 66 67 66 72 76 77 79 84 88 91 93 95 96 97 97 97 97 98 97 97 96 95 95 94 94 95 96 94 90 85 80 76 72 69 67 65 63 61 60 56 54 51 48 47 45 41 37 31 25 20 18 18 19 19 20 23
8 8 9 10 11 12 14 16 16 16 17 17 18 19 19 21 23 26 29 30 31 35 37 36 33 29 27 30 36 47 60 67 69 74 79 80 82 86 89 91 91 90 90 91 92 93 94 95 96 97 97 96 95 94 94 94 94 92 87 82 77 74 72 70 68 66 63 61 59 57 56 55 52 50 46 40 33 27 23 21 20 20 20 21 24 26
10 11 12 13 14 15 17 19 19 18 19 19 19 20 22 24 24 25 29 33 34 36 38 40 41 39 35 34 32 34 42 51 57 63 68 69 71 74 78 81 82 84 87 89 91 91 92 96 99 102 103 102 100 100 99 97 95 90 83 79 75 73 72 69 66 64 62 61 61 60 59 58 55 51 45 37 30 26 24 24 23 22 21 24 27 28
13 14 16 16 17 19 21 24 26 26 26 25 24 24 26 27 27 26 29 33 35 36 38 41 44 45 44 43 41 38 38 40 43 46 50 54 59 63 68 72 75 80 85 88 90 92 94 98 103 106 106 105 104 103 100 95 90 85 80 76 74 71 70 68 66 65 64 63 64 63 61 60 56 49 40 33 29 28 28 27 25 23 23 27 30 29
17 19 20 21 23 24 26 29 33 35 35 33 32 32 31 31 31 31 31 32 34 37 39 42 46 49 51 51 51 49 47 45 44 43 45 48 52 55 60 66 71 76 82 86 90 92 94 98 101 105 106 104 101 99 95 89 84 82 79 75 72 71 70 69 68 67 66 66 66 65 64 61 53 43 36 33 32 31 31 29 26 25 27 31 32 32
22 23 25 27 28 29 30 32 34 38 40 39 39 39 37 35 35 35 34 33 35 38 41 44 48 51 54 57 58 58 58 57 55 54 53 54 54 56 60 66 72 76 81 86 89 90 91 94 97 100 102 100 96 92 89 85 82 82 80 77 74 73 72 70 69 68 68 69 68 68 65 58 47 40 36 35 35 35 33 29 26 26 30 33 33 36
28 28 30 33 33 34 35 36 37 41 43 43 44 44 42 40 38 36 35 34 35 38 41 45 49 53 56 60 62 64 67 67 66 67 67 66 67 68 71 76 80 83 85 87 89 89 89 90 92 94 95 93 90 87 86 85 84 83 82 79 77 75 73 72 71 70 71 72 72 70 63 52 44 40 38 40 42 41 34 29 27 29 32 34 34 39
33 34 36 39 40 40 41 41 41 44 46 46 47 48 47 44 41 38 36 35 35 37 40 45 50 55 59 63 65 69 73 75 75 76 78 79 81 84 86 88 90 91 90 89 89 88 87 87 88 89 89 87 86 86 86 87 87 86 84 81 78 76 75 74 73 73 75 76 75 69 58 48 43 41 40 45 48 43 35 31 31 33 35 35 35 42
37 39 41 43 46 47 47 46 45 47 49 50 50 51 50 48 44 41 39 37 37 37 39 44 52 57 63 67 70 74 78 81 83 84 86 89 91 94 95 95 94 94 92 91 90 89 88 87 86 87 88 88 88 89 89 89 89 88 86 83 80 77 76 75 76 78 80 80 75 65 54 48 45 41 43 51 53 44 36 34 35 39 41 37 34 39
37 41 43 46 49 51 52 52 51 50 51 53 53 53 53 52 49 45 42 40 40 40 41 45 52 59 65 71 75 78 83 87 90 93 95 97 99 101 101 98 95 93 93 93 94 94 92 91 91 92 93 93 92 92 91 91 91 90 87 84 81 78 76 76 79 83 85 82 73 61 52 49 47 44 48 57 57 47 40 39 39 41 44 41 35 38
34 38 42 46 50 54 56 58 58 56 55 57 57 57 56 55 53 50 46 43 43 43 43 45 51 58 67 75 81 84 89 93 97 100 103 104 104 104 103 101 98 96 97 99 100 101 100 100 98 97 97 97 96 94 94 93 92 91 89 86 83 79 77 78 82 87 87 82 69 58 53 51 48 47 54 64 62 50 45 49 51 48 45 43 41 44
30 34 39 43 48 54 58 62 64 64 63 62 62 61 60 59 58 55 51 48 46 45 44 46 50 57 66 77 86 91 96 100 102 103 103 103 103 102 101 100 100 100 102 104 104 104 104 104 101 99 99 99 98 97 95 92 91 91 90 87 84 81 80 82 85 88 87 80 66 58 55 52 48 50 60 71 70 56 45 49 60 61 53 48 48 50
Wind_Speed
42 41 40 40 40 39 39 39 40 40 41 42 42 43 43 44 43 44 46 47 47 49 49 51 52 52 53 53 54 55 55 56 57 58 59 60 60 60 60 60 60 60 60 59 59 58 58 58 58 58 57 57 56 56 56 56 57 57 58 59 59 59 59 59 59 59 59 58 58 58 59 60 61 62 62 63 63 64 64 65 65 66 67 67 67 67
40 39 38 39 38 38 38 38 39 40 41 42 43 44 44 45 45 45 47 48 49 51 51 53 54 54 54 54 55 56 57 57 58 59 60 60 60 59 59 59 58 58 57 57 57 57 57 57 57 56 55 55 55 55 55 56 57 58 59 59 59 58 58 58 58 59 59 59 59 60 60 61 62 63 63 64 64 65 65 66 66 66 66 66 66 66
38 37 37 37 37 37 37 38 39 40 41 42 43 44 44 45 46 47 48 50 51 52 53 55 56 56 56 56 56 57 57 58 58 59 59 59 58 58 57 57 56 56 55 55 55 56 55 55 54 54 53 53 54 55 56 57 58 58 58 58 57 57 57 58 59 59 60 60 61 61 62 62 62 63 64 65 65 66 66 66 66 66 66 65 66 66
36 35 36 36 36 37 37 38 39 40 41 42 43 45 45 46 48 49 50 51 52 53 54 56 57 58 57 57 57 57 57 58 58 58 58 57 57 56 55 55 54 54 53 53 53 53 53 52 52 52 52 53 54 55 56 56 56 57 57 57 57 57 58 59 60 60 61 62 62 62 63 64 64 64 65 65 65 65 66 66 66 66 67 67 68 68
34 34 35 35 36 37 38 39 40 41 42 43 45 47 47 48 50 50 51 52 53 54 54 56 57 58 57 57 57 57 57 57 57 57 56 56 55 54 53 53 52 52 52 52 52 52 51 51 51 52 52 53 54 55 55 55 55 56 56 56 57 58 59 60 61 61 62 62 63 63 64 64 65 65 65 64 64 65 66 66 66 67 68 69 70 71
34 35 36 37 38 39 40 41 42 43 44 44 46 47 48 49 49 50 51 52 53 53 53 54 56 57 56 56 57 56 56 56 56 55 55 54 53 52 51 51 51 52 52 52 51 51 51 51 51 52 53 54 54 54 55 55 55 56 57 58 59 59 60 61 62 62 63 63 64 65 65 65 65 64 64 65 66 66 67 67 67 68 70 71 72 73
35 36 37 38 39 40 41 42 43 44 45 45 46 47 48 48 48 49 50 50 52 52 52 53 54 55 56 57 57 56 55 55 55 54 53 52 52 51 51 52 52 52 52 52 51 51 51 52 52 52 53 54 55 55 56 56 57 57 58 59 60 61 61 62 63 63 64 65 65 66 66 66 66 65 66 67 68 69 69 69 70 71 72 73 74 75
35 36 37 38 39 40 41 43 43 44 45 45 46 46 47 47 48 48 49 50 51 52 53 53 52 54 57 58 57 56 56 55 54 53 52 52 52 53 53 53 52 52 52 52 52 52 52 52 52 53 54 55 56 57 57 58 58 59 59 60 61 61 62 63 64 65 66 66 66 67 66 66 67 68 68 69 70 70 71 72 73 74 75 76 76 76
35 36 38 39 40 41 42 42 43 44 45 45 46 46 47 48 49 50 51 52 53 55 55 52 51 53 56 56 56 55 55 54 53 53 53 53 53 53 53 53 52 52 52 52 52 52 52 52 53 55 56 57 58 58 58 58 59 59 60 60 61 62 63 64 65 65 66 66 66 66 66 67 68 69 70 71 72 73 74 75 76 77 77 77 76 76
36 37 39 39 39 40 40 41 42 43 45 46 47 48 49 50 50 51 52 52 53 55 54 51 50 53 54 54 53 54 54 54 54 54 54 53 53 52 52 52 52 51 51 52 52 52 53 54 55 56 57 57 58 58 59 59 60 60 61 61 62 63 63 64 64 64 64 64 65 66 67 68 69 70 72 73 75 76 78 78 78 77 77 76 74 73
37 37 37 38 38 39 40 41 43 45 46 47 47 48 48 48 49 49 50 50 51 52 51 50 51 52 54 54 53 54 54 54 53 53 53 52 52 52 51 51 51 51 52 52 52 53 54 55 56 56 57 57 58 59 59 60 61 61 62 62 62 62 63 63 63 64 64 66 67 68 70 71 72 74 75 76 78 78 78 78 78 77 76 74 72 70
35 36 36 37 38 40 41 41 42 44 44 45 46 46 47 48 48 49 50 50 52 52 51 52 52 53 55 56 54 54 54 53 53 52 52 52 51 51 51 51 51 51 52 52 53 54 55 55 56 56 57 58 59 59 60 61 62 62 62 62 63 63 63 64 64 66 68 69 71 72 73 74 76 77 78 78 78 78 78 78 77 76 74 72 71 70
33 35 36 37 37 38 39 39 40 42 43 44 46 47 49 50 51 51 51 52 53 53 53 54 54 55 56 56 55 54 53 53 52 52 51 51 51 51 51 51 51 52 52 53 53 54 54 54 55 56 57 58 59 60 61 61 61 62 63 64 64 64 65 66 69 70 71 72 73 75 76 77 78 78 78 79 79 79 78 77 75 74 72 71 70 71
32 33 33 34 35 36 38 39 40 42 43 45 46 47 49 51 52 53 52 53 54 54 54 55 55 56 56 55 54 53 53 53 52 52 52 51 51 51 51 51 52 52 52 53 53 53 53 54 55 56 58 59 60 60 61 62 62 63 64 64 65 67 70 71 72 73 73 74 76 77 78 78 78 78 79 79 79 78 76 74 73 72 71 71 71 72
32 32 32 34 35 36 38 40 41 43 45 46 47 48 49 50 52 53 53 54 55 54 55 54 55 56 56 55 54 53 53 53 52 52 51 51 51 51 51 52 52 52 52 52 53 53 54 55 56 57 58 59 60 61 62 63 63 64 65 67 69 71 73 73 74 75 76 77 78 78 78 79 79 79 79 78 76 74 73 72 71 71 72 72 73 74
33 32 34 35 37 39 40 42 44 46 47 48 49 50 50 50 51 53 53 54 55 55 56 55 54 55 55 55 55 53 52 52 51 51 51 51 51 51 51 51 51 52 52 53 53 54 54 55 56 58 59 60 61 62 63 64 65 66 68 71 72 73 74 75 76 77 78 78 78 79 79 79 79 78 76 74 72 71 70 71 71 72 73 74 74 75
35 33 35 38 39 41 43 45 48 49 50 51 52 52 52 52 52 52 53 54 54 55 56 55 55 55 55 55 54 52 51 51 50 50 50 50 51 51 51 51 52 52 52 53 53 53 54 55 57 59 60 61 62 63 65 67 68 70 71 72 73 75 76 77 77 78 78 78 79 79 79 78 76 74 71 70 69 70 71 72 72 73 74 75 75 76
39 38 37 40 43 44 47 49 51 52 53 54 54 53 53 53 52 52 54 55 54 55 56 56 55 55 54 54 53 52 52 51 51 50 50 50 50 51 51 51 51 51 51 51 51 52 54 56 58 60 61 63 64 66 68 69 71 72 73 74 75 76 77 77 78 78 79 79 80 79 77 74 72 70 69 69 70 71 72 72 73 74 74 75 76 77
44 44 42 44 47 49 50 52 53 54 55 55 54 54 53 52 52 52 53 54 54 55 56 56 55 54 53 52 52 52 52 52 51 51 50 50 50 50 50 49 48 48 48 48 50 52 55 57 59 61 63 65 66 68 69 71 72 73 74 75 76 77 78 79 79 79 80 80 79 76 73 70 69 69 70 70 71 72 72 73 74 75 76 77 78 78
48 50 49 48 50 52 53 55 56 56 56 55 54 52 52 52 51 51 52 52 52 54 55 55 55 53 52 52 52 52 52 51 51 50 50 49 49 47 45 44 43 43 44 46 51 55 58 60 62 63 65 66 68 69 71 72 73 75 76 77 78 79 79 80 80 81 80 78 74 71 69 68 68 69 70 71 72 72 73 74 75 76 77 77 78 79
50 52 53 52 52 53 54 56 58 58 58 56 53 52 51 51 51 51 51 49 49 50 52 54 54 53 52 52 52 51 50 50 50 49 48 46 43 41 39 39 40 42 44 48 53 56 58 60 63 64 66 68 69 71 73 74 76 77 78 79 80 80 80 81 82 80 76 72 69 67 67 68 69 70 70 71 72 73 73 74 75 76 77 78 79 81
52 54 55 55 55 55 56 58 58 57 56 54 52 52 51 51 51 51 51 49 48 49 50 51 53 53 52 51 50 50 49 48 47 45 43 41 40 39 40 41 43 46 49 53 55 58 60 62 65 67 69 71 72 74 76 77 78 79 80 81 81 82 83 82 79 75 70 67 66 67 67 68 69 70 71 72 72 73 74 75 76 77 79 80 82 84
53 55 56 57 57 57 57 57 56 54 53 51 50 50 50 49 49 49 51 50 49 50 49 50 52 52 50 48 48 47 45 44 43 42 41 41 41 41 42 45 47 51 54 58 60 63 65 67 69 71 73 74 76 77 78 79 80 81 82 83 83 83 81 77 72 68 66 65 66 67 68 69 70 71 72 72 73 74 75 77 78 80 82 83 85 86
55 57 58 58 57 56 55 55 53 51 49 48 48 47 47 46 46 47 48 49 50 50 49 49 50 49 47 45 42 40 39 41 41 41 41 41 42 44 47 51 54 57 60 63 65 67 69 71 73 74 76 77 78 79 80 81 82 83 83 83 82 79 75 70 67 65 65 66 67 68 69 70 71 72 72 73 74 76 78 79 81 83 85 86 88 88
55 57 59 60 60 59 59 58 55 52 49 48 47 47 47 47 47 48 48 48 50 49 47 46 45 43 41 38 37 38 40 42 42 42 44 46 49 51 54 57 60 62 64 66 69 70 72 74 75 77 78 79 79 80 81 82 82 82 81 79 76 72 68 66 65 65 66 67 68 69 70 71 71 72 74 75 77 78 80 82 84 86 87 89 89 89
55 56 56 56 56 57 58 57 56 55 52 50 49 49 49 49 49 49 49 48 47 46 43 40 38 37 37 38 40 43 44 45 46 48 50 52 54 57 59 61 64 66 68 70 71 73 74 75 77 78 78 78 78 79 79 79 79 78 76 72 69 66 65 65 65 66 67 68 69 70 70 71 73 74 76 78 79 81 83 85 87 88 89 89 89 89
54 53 51 49 48 48 50 50 50 51 51 50 49 49 50 50 51 50 49 47 45 44 42 38 37 40 43 45 46 47 48 49 50 52 54 56 58 60 63 65 67 69 70 72 73 74 75 76 76 76 76 76 76 76 76 76 75 72 69 66 64 64 64 65 65 66 68 69 70 71 72 73 75 77 79 81 82 84 86 88 89 89 89 89 90 90
51 49 47 44 43 44 46 47 47 49 50 50 49 50 50 51 51 50 49 48 47 46 45 43 44 47 49 49 49 50 51 53 54 56 57 59 61 63 66 68 69 71 72 74 74 74 74 73 73 73 73 73 73 73 72 70 68 66 64 62 62 63 64 65 66 67 68 69 71 72 74 75 78 80 82 84 85 87 88 88 88 88 89 90 91 92
47 46 44 43 42 44 46 47 48 49 50 51 51 51 51 52 51 50 49 49 47 47 48 48 48 49 50 50 52 53 54 55 56 58 60 62 65 67 69 70 71 72 72 72 71 70 70 70 70 69 69 68 67 66 65 64 62 61 61 61 62 63 64 65 66 68 69 71 73 74 76 78 80 83 85 86 87 87 87 87 88 89 90 91 92 94
45 44 44 44 44 45 47 48 50 51 51 52 52 52 53 53 52 51 49 48 46 46 47 48 48 49 50 51 53 54 55 57 59 62 64 66 68 70 71 72 71 70 69 67 66 66 66 65 65 64 63 62 61 61 60 59 59 59 60 61 62 63 65 66 68 70 72 74 75 77 79 81 83 84 85 85 85 86 86 87 89 90 91 92 93 95
44 44 45 46 46 47 48 49 51 52 52 52 53 53 53 53 51 49 47 46 45 45 47 49 50 51 52 53 54 57 59 61 64 66 67 69 71 71 70 69 67 65 64 63 63 62 61 61 61 60 59 59 58 58 58 58 59 60 61 63 64 66 67 69 71 72 74 76 78 80 81 82 82 83 83 83 84 85 87 88 89 91 92 93 94 95
44 45 46 47 48 49 50 50 51 51 51 52 52 52 52 52 50 48 47 46 46 47 48 49 50 52 54 56 59 61 64 66 68 68 68 67 67 66 65 64 63 62 62 61 61 60 59 59 59 59 58 58 57 57 58 59 60 61 63 64 66 67 69 71 72 74 76 77 78 79 79 79 80 80 82 83 84 86 87 89 90 91 92 93 93 94
44 46 47 48 48 49 50 51 51 52 52 53 54 54 54 54 53 52 49 46 45 46 48 50 53 56 58 61 63 63 64 64 64 65 64 63 63 63 63 62 62 61 61 60 59 59 59 58 58 58 58 57 57 57 57 58 59 61 63 64 66 68 69 71 72 73 74 75 76 76 77 78 79 80 82 83 85 87 88 89 90 91 91 92 92 94
44 46 47 48 49 49 50 51 52 53 55 57 58 58 59 59 58 57 54 50 47 48 50 53 55 57 58 59 60 60 59 59 60 60 61 61 61 61 61 61 60 60 59 58 58 57 57 57 57 57 57 57 57 57 57 58 59 60 62 64 65 67 68 69 70 71 72 73 74 75 76 78 79 81 82 84 86 87 88 89 89 90 91 91 92 94
44 45 46 47 48 50 51 52 54 56 58 59 60 61 61 62 61 60 57 53 50 50 50 51 53 54 55 56 57 57 57 57 57 58 58 58 58 58 58 58 57 57 56 55 54 54 55 55 55 55 56 56 56 56 57 58 59 61 62 64 65 66 67 68 69 71 72 73 74 76 77 79 80 82 84 85 86 86 87 88 88 89 90 91 92 92
43 45 45 47 48 50 52 54 56 58 58 59 60 61 61 62 61 61 59 53 50 52 52 51 52 52 53 54 54 54 54 53 53 54 54 53 53 53 53 53 52 52 52 52 52 52 53 53 54 54 54 55 55 56 57 58 60 61 63 64 65 65 67 68 69 70 72 74 76 78 79 81 82 83 84 84 85 85 86 87 88 89 90 89 88 86
43 45 46 47 49 51 52 53 54 55 57 60 61 62 63 64 63 65 64 58 55 56 56 55 54 54 54 54 53 53 53 51 51 51 50 50 49 49 49 49 50 50 50 50 51 51 52 52 53 53 53 54 55 56 57 59 60 61 62 63 64 65 66 68 70 72 74 76 78 79 81 82 82 82 83 83 84 85 85 86 87 88 87 85 81 78
43 45 46 48 50 51 52 53 54 55 57 59 60 61 63 65 64 65 66 63 60 60 59 58 57 56 55 54 53 53 53 52 50 51 51 50 49 49 49 49 49 50 50 50 50 51 52 53 54 54 55 56 57 57 58 59 60 61 61 63 64 66 68 70 72 74 76 77 79 80 81 81 82 82 83 83 84 84 85 86 85 83 81 78 75 72
44 46 47 48 50 51 53 54 56 57 58 58 59 60 62 63 64 65 65 64 62 62 60 59 58 57 56 55 54 54 54 52 51 51 51 51 50 50 50 49 50 50 51 51 51 52 53 54 55 55 56 56 57 57 58 58 60 61 62 64 66 68 70 72 74 75 76 77 78 79 80 81 82 82 82 82 83 83 84 82 80 77 75 72 69 67
44 46 47 49 50 51 52 54 55 57 58 59 59 59 60 62 63 65 66 65 64 63 62 61 60 58 58 57 55 55 55 54 53 52 52 52 52 51 51 51 51 51 51 52 52 52 53 54 54 55 56 56 56 57 58 59 61 63 64 66 68 70 71 73 74 75 76 76 77 79 80 81 81 81 81 81 81 80 79 77 74 72 68 65 63 63
45 46 48 49 50 52 53 54 54 56 58 59 59 59 60 61 63 65 66 66 66 65 64 62 61 60 59 58 57 56 55 56 55 54 54 54 53 53 53 52 52 52 52 52 52 52 53 54 55 56 56 57 57 58 59 60 62 64 67 68 70 71 72 72 73 74 75 77 78 79 79 80 80 79 79 79 78 75 74 72 69 66 63 60 59 60
46 48 49 51 52 53 54 55 55 57 58 59 60 61 61 63 64 65 65 66 66 66 65 63 63 62 61 59 58 57 56 56 56 56 55 55 55 54 53 53 53 53 53 53 53 53 54 54 55 56 57 58 59 60 61 62 64 67 68 70 70 71 71 73 74 75 76 77 78 78 78 77 77 77 77 76 74 71 69 67 64 62 59 58 57 57
49 50 52 53 54 55 56 57 58 59 60 61 62 62 63 63 64 64 65 65 66 66 65 65 64 63 63 61 60 59 58 57 57 57 56 56 56 55 55 55 54 54 54 54 54 55 55 55 56 57 58 60 61 62 63 65 66 68 69 69 70 71 72 74 75 76 77 77 77 76 75 75 75 75 74 72 70 67 64 62 60 58 57 57 56 54
52 53 54 56 57 57 58 59 60 61 62 63 63 64 63 63 63 64 64 65 65 65 66 65 64 64 64 63 62 60 59 58 58 57 57 56 56 56 56 56 55 55 55 55 55 55 56 56 57 58 60 61 63 64 66 67 67 68 69 69 70 71 73 74 76 76 76 75 74 73 72 72 72 72 71 69 66 63 60 58 57 56 56 55 54 51
53 54 55 57 58 58 59 59 60 60 62 63 64 64 63 63 64 64 64 65 65 65 66 66 65 65 64 64 63 62 61 61 60 59 58 58 57 56 56 56 56 56 55 55 56 56 57 57 58 59 61 63 64 65 67 67 68 68 69 70 71 73 74 75 75 75 74 73 71 70 69 69 69 69 68 65 62 60 57 55 55 55 54 53 51 48
54 55 56 57 58 59 60 60 61 61 61 62 63 63 64 64 64 64 64 64 65 65 66 66 66 66 65 65 65 64 63 63 61 60 60 59 58 58 57 57 56 56 56 56 57 57 58 59 60 61 62 64 65 66 67 68 69 69 70 72 73 73 74 74 73 73 71 69 68 67 67 67 66 65 63 61 59 58 56 54 54 54 53 51 49 45
55 56 57 58 59 60 60 61 61 61 61 62 62 62 63 63 64 64 64 64 65 65 66 66 66 66 66 66 66 65 64 63 63 61 61 60 60 59 58 58 58 57 57 57 58 58 59 60 61 62 63 64 65 67 68 69 70 71 71 72 73 73 73 73 72 70 68 67 66 66 66 65 64 61 59 57 56 55 53 53 53 53 52 51 47 42
56 57 58 59 59 60 61 61 61 61 61 62 62 62 63 63 64 64 64 65 65 65 66 66 67 67 67 67 67 66 65 64 64 62 62 61 61 60 59 59 59 58 58 59 59 59 60 61 62 63 64 65 66 67 68 69 70 71 72 72 73 73 72 71 70 68 66 65 65 65 64 63 61 59 56 54 53 52 51 50 51 52 52 50 47 41
57 58 59 60 60 61 62 62 62 62 62 62 63 63 63 64 65 65 65 65 65 66 66 66 67 67 68 67 67 67 66 65 65 64 63 62 61 60 60 60 59 59 59 59 60 60 61 62 63 64 65 67 68 68 69 70 71 72 72 73 73 72 71 69 67 65 64 64 64 64 63 61 59 56 53 52 51 50 49 49 50 50 50 49 47 43
56 58 59 61 61 62 63 63 64 64 64 64 64 65 65 65 65 66 66 66 66 67 67 67 67 67 68 68 68 68 67 66 66 65 64 63 62 61 60 60 60 60 60 60 61 61 63 64 65 66 67 68 69 70 70 71 71 72 73 73 73 72 70 67 65 63 62 63 63 62 61 59 56 54 52 50 49 47 46 47 49 51 50 48 46 43
56 58 59 61 62 63 64 64 65 66 66 66 66 66 66 66 66 67 67 68 68 68 68 68 68 68 68 69 69 69 68 67 67 66 65 63 63 62 61 61 61 60 60 61 61 62 63 64 66 67 68 69 70 71 71 72 72 72 73 73 72 71 68 66 63 62 61 62 61 60 59 57 54 52 50 49 48 45 43 42 44 48 50 49 46 43
Wind_Direction
291 291 291 291 290 290 290 289 289 289 289 289 289 289 290 290 290 288 287 287 288 287 287 287 287 287 287 287 287 287 287 286 286 286 286 287 287 287 287 287 287 287 287 287 287 286 286 286 286 285 285 284 283 282 281 281 281 281 281 280 280 280 280 279 279 279 279 278 278 278 278 278 278 278 278 279 280 280 281 281 282 282 282 283 283 283
291 291 291 291 291 291 291 290 290 290 290 290 290 290 290 290 289 288 288 288 288 288 288 287 287 287 287 287 287 287 287 288 287 287 288 288 288 288 288 288 288 288 288 287 287 286 286 286 286 285 284 282 282 281 281 281 280 280 280 279 279 279 278 278 278 278 278 278 278 277 277 277 277 278 278 279 280 280 281 282 282 282 282 283 283 283
291 292 292 292 293 292 292 291 290 290 290 290 290 290 290 289 289 288 288 288 288 288 288 288 288 287 287 287 288 288 288 288 288 289 289 289 289 290 289 289 289 289 288 288 287 287 287 287 286 285 283 282 281 280 280 280 280 279 279 278 278 278 277 277 277 277 277 278 278 278 278 278 278 278 279 279 280 280 280 281 281 282 282 282 282 283
293 293 293 293 293 293 292 291 291 290 290 291 290 290 290 289 289 289 289 288 288 289 289 289 289 288 288 289 289 289 289 289 290 290 290 290 291 291 291 290 290 289 289 288 288 288 288 287 286 284 282 281 280 280 279 279 278 278 278 277 277 277 277 277 277 278 278 279 279 279 279 280 280 280 280 280 281 281 281 282 283 284 284 284 284 284
295 294 294 294 293 293 292 292 291 291 291 291 291 290 290 290 290 289 289 289 289 289 290 290 290 289 290 290 290 290 291 291 292 292 292 292 292 292 292 291 290 290 290 289 289 289 288 287 285 284 282 281 280 279 278 278 278 278 277 277 277 278 278 278 278 278 279 279 279 279 280 280 281 281 282 282 282 283 284 285 285 286 286 287 287 287
294 293 293 292 292 292 292 292 291 291 291 291 291 291 291 291 291 291 291 290 290 290 291 291 292 291 291 292 292 292 292 292 292 292 293 293 293 293 292 292 291 291 291 291 290 289 288 286 284 283 281 280 279 279 279 278 278 278 278 278 278 278 278 278 279 279 279 279 279 279 279 279 279 280 281 281 282 282 284 285 286 287 288 289 289 290
292 292 292 292 293 293 293 293 293 293 293 293 293 293 293 293 293 293 293 293 292 292 292 293 294 294 293 292 293 293 293 292 292 293 293 293 293 293 292 292 292 292 291 291 290 288 287 285 283 282 280 280 280 280 279 279 279 279 279 279 279 279 279 279 279 279 279 279 279 279 279 279 279 280 280 281 282 283 284 286 287 288 289 290 291 290
293 294 295 295 295 295 295 295 295 295 295 295 295 295 295 296 296 296 296 295 295 294 294 295 296 295 293 293 293 293 293 293 293 293 293 293 293 292 293 292 292 292 291 289 288 287 286 284 282 281 281 281 281 281 281 281 281 281 280 280 280 280 280 280 280 279 279 279 279 280 280 281 281 281 282 283 284 285 286 288 289 290 290 291 290 290
297 297 297 297 298 298 298 298 298 298 298 298 298 297 297 297 297 297 296 296 296 294 294 296 296 295 294 294 294 294 294 294 294 294 294 293 293 293 292 292 291 290 289 288 287 286 284 283 282 282 283 283 282 282 282 282 282 281 281 281 281 281 281 281 281 281 281 282 282 282 282 282 283 284 285 286 287 288 288 289 289 290 290 290 289 289
299 300 300 300 301 301 301 301 301 300 300 299 299 298 298 298 298 297 297 297 296 296 296 297 296 295 295 295 295 295 294 294 294 294 294 294 293 292 292 291 290 289 289 288 286 285 284 284 284 284 284 283 283 283 283 283 283 283 283 283 283 282 282 283 283 283 283 283 283 283 284 284 285 286 287 287 288 288 288 288 289 289 289 289 288 288
303 303 304 303 304 303 303 303 302 301 301 300 300 300 300 300 299 299 299 299 298 298 299 298 296 295 295 295 295 295 295 295 295 295 294 293 293 292 291 290 290 289 288 287 286 285 285 285 285 285 284 284 284 284 284 284 284 284 284 284 283 283 283 284 284 284 285 285 285 286 286 286 287 287 287 287 287 287 288 288 288 288 287 287 287 287
306 306 305 305 305 304 304 304 304 304 304 304 304 304 303 303 302 301 301 301 300 300 300 298 297 296 295 296 296 296 296 296 295 294 294 294 293 292 291 291 290 289 288 287 286 286 286 286 286 286 285 285 285 285 286 286 286 286 286 285 285 285 285 286 287 287 287 287 287 286 286 286 286 286 286 286 286 287 287 287 286 286 286 286 286 286
304 305 305 306 306 307 307 307 307 307 307 307 307 307 306 305 304 303 303 302 301 301 301 300 299 298 297 298 298 298 298 296 296 296 295 295 294 292 292 291 290 289 288 288 288 288 288 288 288 288 287 287 287 287 287 287 287 286 286 286 286 287 288 288 287 287 286 285 285 285 285 285 285 286 286 286 286 286 286 285 285 285 284 285 285 286
304 307 309 310 310 310 310 309 308 309 309 309 310 309 309 308 307 306 306 304 303 303 302 301 300 299 300 300 300 299 298 297 297 297 296 295 294 294 293 292 292 291 291 291 291 290 290 290 289 288 288 287 287 287 287 287 286 286 286 286 287 288 287 287 286 285 284 284 284 284 285 285 286 286 286 286 286 286 285 285 284 284 285 285 285 286
311 314 316 316 316 315 314 313 312 312 312 312 313 312 311 310 308 308 307 306 305 304 303 302 301 300 301 300 299 298 298 298 298 297 296 296 295 295 294 294 293 293 292 292 292 291 290 290 289 288 287 287 287 287 286 286 286 286 286 286 286 286 285 284 283 283 283 284 285 285 286 286 286 286 286 286 285 285 285 285 285 285 285 286 286 286
315 318 320 320 320 318 316 316 315 314 315 314 314 313 313 311 309 308 307 306 305 303 303 303 301 301 300 299 298 299 299 298 297 297 297 296 296 296 295 295 294 293 292 292 291 291 290 289 288 287 287 286 285 285 285 285 285 285 285 284 284 283 282 282 282 283 284 284 285 285 286 286 287 286 286 285 285 285 285 285 286 286 286 286 287 287
316 319 322 321 320 318 317 316 315 315 316 315 315 315 314 312 310 308 306 305 303 302 303 303 301 300 300 299 299 299 298 298 297 297 297 297 296 296 295 295 294 293 293 292 292 291 290 288 287 286 285 284 284 283 283 283 283 283 282 282 281 281 281 282 283 284 285 286 286 287 287 287 287 286 285 284 285 285 285 286 286 286 287 287 288 288
316 316 321 321 319 318 317 316 316 316 316 316 316 315 314 312 310 308 306 305 304 302 302 302 301 300 299 299 299 299 298 298 298 298 297 297 297 296 296 295 294 294 293 292 291 289 287 285 284 283 282 282 282 282 281 281 281 281 280 280 281 282 283 284 286 286 287 287 288 288 288 286 285 284 284 284 284 284 285 285 286 287 287 288 289 290
317 315 318 320 319 318 318 317 316 317 316 316 316 316 314 312 310 308 306 305 304 303 302 302 300 300 300 300 299 299 299 299 299 299 298 297 297 296 295 294 293 292 290 290 289 286 284 282 281 280 280 280 280 279 279 280 280 280 281 283 284 285 286 287 287 288 288 288 288 287 286 284 283 283 283 283 284 284 285 286 287 287 288 289 290 290
319 317 318 320 320 319 318 317 316 316 316 316 316 315 313 311 309 307 306 305 304 303 302 301 301 301 301 300 300 300 300 300 299 299 298 297 296 294 293 291 289 288 288 287 285 281 279 278 277 277 277 278 278 279 280 281 283 284 285 286 287 288 288 288 288 289 289 288 287 285 283 282 282 283 283 284 285 285 286 287 288 289 290 290 290 291
319 318 318 319 319 319 318 316 316 316 317 317 316 315 313 311 309 308 306 306 304 303 302 302 302 302 302 301 301 301 300 299 299 298 296 295 292 289 286 284 283 283 282 280 277 275 275 275 276 277 278 279 281 283 284 285 287 288 288 288 288 288 289 289 289 289 288 286 284 282 282 282 283 283 284 285 286 287 288 289 290 290 290 291 291 291
319 318 317 317 318 318 318 317 317 317 318 318 317 315 314 313 311 309 308 307 305 303 303 303 302 302 303 302 301 300 299 298 297 294 291 287 284 281 280 281 280 279 277 276 276 277 277 278 279 281 283 284 286 287 288 288 289 289 289 289 289 289 289 289 289 287 284 282 281 281 281 282 283 285 286 287 288 289 289 290 290 291 291 291 292 292
319 318 317 318 319 319 319 318 317 318 318 318 317 316 315 314 312 310 309 308 306 305 305 303 301 302 303 301 299 299 297 295 291 287 284 281 280 279 280 280 279 278 278 279 280 281 283 284 285 287 288 288 289 289 290 290 290 290 290 289 289 289 289 288 285 283 281 280 280 281 282 283 285 286 287 288 289 289 290 291 291 291 292 292 292 293
320 319 317 317 318 318 317 316 317 318 319 318 317 316 315 313 311 310 309 308 306 307 306 303 301 301 301 299 298 295 290 286 283 282 280 279 278 278 278 278 279 281 282 283 285 286 288 289 289 290 290 290 290 291 290 290 290 290 290 289 289 288 287 284 282 281 280 281 281 282 284 285 286 287 288 289 290 290 291 292 292 292 293 293 294 294
322 321 320 319 318 317 316 317 318 319 321 321 320 319 318 315 313 311 311 309 308 308 306 302 300 299 298 295 289 283 280 278 277 276 276 276 277 278 280 282 284 285 286 288 289 289 290 290 291 291 291 291 291 291 291 291 290 290 290 289 288 286 284 282 281 281 281 282 283 284 285 287 288 289 290 290 291 291 292 293 293 294 294 294 294 294
323 324 324 325 326 324 323 324 324 324 324 324 323 322 319 318 316 314 314 312 309 308 305 299 294 291 287 283 279 277 276 275 275 275 277 279 282 284 286 287 288 289 289 290 290 290 291 291 292 292 292 293 293 292 292 291 291 290 290 288 286 284 282 282 282 282 283 284 285 286 288 289 290 291 291 291 292 292 293 294 294 295 295 295 294 294
325 326 329 332 334 332 330 330 329 327 325 324 322 320 318 317 316 316 316 314 311 307 302 294 287 284 283 280 279 277 277 278 280 282 284 286 288 289 289 290 290 290 290 291 291 292 293 293 294 294 294 294 294 293 293 292 291 290 288 286 285 284 283 283 284 284 285 287 288 289 290 291 292 292 292 292 293 293 294 295 295 295 295 295 295 295
328 330 333 336 338 335 333 333 331 329 328 326 324 322 320 318 318 318 318 316 313 308 301 295 290 288 286 284 282 282 283 285 287 288 289 290 290 290 291 291 291 292 293 294 295 295 295 295 295 295 295 295 295 294 293 292 291 289 287 286 285 285 285 286 286 287 289 290 291 291 292 292 292 293 293 294 294 295 295 295 295 295 296 296 296 296
332 334 335 338 339 338 338 337 335 334 332 330 328 326 324 322 321 319 318 316 313 309 303 300 296 292 290 288 288 288 288 289 290 290 291 292 293 293 294 294 295 296 297 297 297 297 297 297 297 297 297 296 295 294 293 292 290 289 288 288 288 288 288 289 289 290 291 292 292 293 293 293 294 294 295 295 296 296 296 296 296 297 297 297 297 297
336 337 339 341 342 342 342 342 341 339 337 335 334 331 328 325 323 321 319 316 314 310 305 302 298 295 294 292 291 291 291 292 293 294 295 296 297 297 298 298 298 299 298 299 299 299 300 300 299 299 299 298 297 296 294 292 292 291 291 291 291 291 291 291 292 292 293 293 293 294 294 295 295 296 296 297 297 297 297 298 298 298 298 298 298 298
340 341 343 344 345 346 347 347 346 345 343 341 340 336 332 330 328 325 321 317 315 311 306 303 300 297 295 293 293 294 295 296 296 297 298 299 299 300 300 300 301 301 301 302 302 302 302 302 302 301 301 300 299 297 296 295 294 293 293 293 293 292 293 293 293 293 294 294 295 295 296 297 297 298 298 298 298 299 299 299 299 299 299 299 299 299
343 345 346 347 348 350 351 351 350 350 348 347 345 341 338 337 335 330 324 319 315 312 309 304 300 297 295 295 295 296 298 299 299 300 301 301 302 302 303 303 303 303 303 303 303 303 303 302 302 302 302 301 300 299 298 297 296 295 294 294 294 294 294 294 295 295 296 296 297 297 298 298 299 299 299 300 300 300 300 300 300 300 300 300 300 300
346 347 349 350 352 353 354 355 354 354 353 353 351 348 346 344 342 338 332 324 317 312 308 303 299 298 297 298 299 300 301 302 303 304 304 304 305 305 305 305 304 304 304 304 304 304 304 304 304 304 303 303 302 301 300 299 298 297 296 295 295 296 296 297 297 298 298 299 299 300 300 300 300 301 301 301 301 301 301 301 301 301 301 301 301 301
350 351 353 354 355 356 356 356 356 356 358 358 357 355 353 351 348 345 340 333 324 316 310 307 306 306 307 307 308 308 309 309 309 309 309 308 307 307 306 306 306 306 306 307 307 306 306 306 305 305 305 305 304 304 303 302 301 300 300 300 300 300 300 300 301 301 301 301 302 302 302 302 302 302 302 302 302 303 303 303 303 303 303 303 303 303
353 354 355 355 356 356 356 356 357 359 0 360 359 359 357 354 352 350 348 343 333 326 321 319 318 317 316 316 316 316 316 316 315 313 312 311 310 310 310 309 309 309 309 309 308 308 307 307 307 307 307 306 306 306 306 305 305 305 304 304 304 303 303 303 303 303 304 304 304 304 303 304 304 304 304 304 304 304 304 304 304 305 305 305 305 304
353 354 354 355 355 356 356 357 359 360 360 359 360 359 358 357 355 353 355 352 342 335 333 329 325 324 322 322 321 321 320 319 319 318 317 317 316 315 315 314 313 313 312 312 312 311 310 309 309 309 309 309 309 309 309 308 308 307 306 306 306 306 306 306 306 306 306 306 306 305 305 305 305 305 305 305 305 305 305 306 306 306 306 306 306 305
353 353 353 354 355 355 356 358 359 359 358 359 359 358 357 357 355 354 356 356 349 343 340 336 332 330 328 326 325 324 323 324 324 323 323 323 322 322 321 320 319 318 317 317 316 315 314 313 313 313 312 312 312 311 310 309 308 308 308 308 308 308 308 308 308 308 308 308 307 307 307 307 307 306 306 307 307 307 307 307 307 307 307 307 306 306
352 352 353 354 354 355 355 356 357 358 359 359 359 357 356 356 355 354 355 355 351 347 345 342 338 335 332 330 329 328 327 327 327 326 325 325 325 324 324 323 322 322 321 320 319 317 316 316 315 315 314 313 313 312 312 311 311 311 311 311 311 311 310 310 310 310 309 309 309 309 308 308 308 308 308 308 308 308 308 309 309 309 308 308 307 306
351 352 352 353 354 354 355 356 356 357 358 358 358 357 356 355 355 354 355 355 352 349 347 345 342 339 336 334 333 331 330 330 329 328 326 326 325 324 324 323 322 321 320 319 319 318 317 317 316 315 315 315 314 314 314 314 314 313 313 313 313 312 312 311 311 310 310 310 310 310 309 309 309 309 309 310 310 310 310 310 310 309 309 308 308 308
351 351 352 353 353 353 355 356 355 355 355 356 356 356 354 355 354 353 354 354 352 350 348 346 343 341 339 337 335 334 332 331 331 330 328 327 327 326 325 324 323 322 321 321 320 320 319 318 317 317 317 317 316 316 316 316 315 315 314 314 313 313 312 312 311 311 311 311 311 311 311 311 311 311 311 311 311 312 311 311 311 310 309 309 310 311
350 350 351 352 353 353 354 354 354 354 354 354 354 354 353 354 354 353 352 352 352 350 348 346 343 341 340 338 337 335 333 332 331 331 330 329 329 328 326 325 325 324 324 323 322 322 321 320 319 319 318 318 318 318 317 317 316 315 315 314 314 314 313 313 313 312 313 313 313 313 313 313 312 312 313 313 313 313 313 313 312 311 310 311 313 313
351 351 352 352 353 353 353 353 353 353 353 353 353 353 352 352 352 352 351 350 350 349 348 346 344 342 341 339 337 336 334 332 331 331 330 329 328 328 327 326 326 325 325 324 323 323 322 322 321 321 320 320 319 319 318 317 317 316 315 315 315 315 315 315 314 314 315 315 315 315 315 315 315 315 315 315 315 315 314 314 312 311 312 314 316 316
353 353 353 353 353 353 353 352 352 352 352 352 352 352 351 351 350 350 350 349 348 348 348 347 345 343 341 340 338 336 334 332 331 330 329 328 328 327 327 326 326 326 325 325 324 324 323 323 322 322 321 320 319 318 318 317 317 317 316 316 316 316 316 316 316 317 317 317 317 316 316 317 317 317 317 316 316 316 316 314 313 313 315 317 318 318
355 355 355 354 354 354 353 352 352 351 350 350 351 351 350 349 348 347 347 347 347 346 346 346 345 343 342 340 339 337 335 333 331 330 329 328 327 327 327 326 326 326 325 325 324 324 324 323 322 322 321 320 319 318 317 317 318 318 317 318 318 318 318 318 319 318 318 318 318 318 318 319 319 318 318 318 318 317 317 316 314 315 317 319 320 319
356 356 356 355 354 353 353 352 352 351 349 349 349 349 348 348 347 346 345 345 345 345 345 345 344 343 342 340 339 337 335 334 333 331 330 329 328 327 327 326 326 326 325 325 324 324 324 323 322 322 321 320 319 319 319 319 319 319 319 319 319 319 320 320 320 319 319 319 319 319 320 320 320 319 319 319 319 318 318 317 316 316 319 320 321 320
358 357 356 355 354 353 353 352 351 350 349 348 348 348 347 347 346 345 344 344 343 343 343 343 343 342 341 340 339 338 336 335 334 332 331 330 329 328 327 327 326 326 325 325 325 324 324 324 323 323 322 321 321 321 320 320 320 320 320 320 320 321 321 321 321 321 321 321 321 321 322 321 321 321 320 320 320 320 319 318 317 318 320 321 322 321
359 358 357 356 354 353 353 352 351 350 348 347 347 346 346 346 345 344 343 343 343 342 342 342 342 341 341 340 339 338 336 334 334 333 332 331 330 329 329 328 327 326 326 326 325 325 325 324 324 324 323 323 322 322 322 322 322 322 321 322 322 323 323 323 323 322 322 323 323 323 323 322 322 322 322 321 322 321 320 319 319 319 321 322 322 321
360 358 357 356 354 353 352 352 351 350 348 346 346 345 345 345 345 344 343 342 342 342 342 341 341 340 340 339 338 338 336 334 333 333 332 331 331 330 330 329 328 327 327 326 326 326 326 325 325 325 324 324 324 324 323 323 323 323 323 323 324 324 325 324 324 324 324 324 324 324 324 324 324 323 323 323 323 323 321 320 320 320 321 322 322 322
359 358 357 357 355 353 352 352 351 351 349 347 346 345 345 345 345 344 343 342 342 341 341 341 340 339 339 338 338 337 336 335 333 333 332 331 331 330 330 330 329 328 328 327 327 327 326 326 326 326 325 325 325 325 325 325 325 325 325 325 326 326 326 326 325 325 325 326 325 325 325 325 325 324 325 325 325 325 324 322 321 321 322 322 322 323
358 357 356 356 355 353 352 351 350 350 350 348 347 346 345 344 344 344 343 342 342 341 341 340 340 339 338 338 337 337 336 335 334 333 332 331 330 330 330 330 330 329 329 328 328 328 328 327 327 327 327 327 327 327 327 327 327 327 327 327 327 327 327 327 326 326 326 326 326 326 326 326 326 326 326 327 327 327 326 324 323 323 323 323 323 323
356 355 354 354 354 353 352 351 350 349 349 348 347 346 344 344 344 343 343 343 342 341 340 340 339 339 338 337 336 336 336 335 334 333 332 331 330 330 330 330 330 330 330 329 329 329 329 328 328 328 328 328 328 328 328 328 328 328 328 328 328 328 328 327 327 327 327 327 327 327 327 328 327 327 328 328 328 328 327 326 325 325 324 323 323 323